STARLINK-1633 (46171 NORAD) Tracking and Keplerian Element Data

This shows tracking and keplerian element data for the satellite.

Feedback or suggestion? Click here.




ElementValue
Catalog46171
NameSTARLINK-1633
Epoch Orbit637
Epoch Day267.83334491
Epoch Year2020
RAAN261.878
Inclination52.999
Eccentricity0.0002139
Argument of Perigee285.3709
Mean Anonmoly196.9163
Mean Motion15.62784137
Decay Rate-0.00022102
L11 46171U 20057BG 20267.83334491 -.00022102 00000-0 -23587-3 0 9992
L22 46171 52.9990 261.8780 0002139 285.3709 196.9163 15.62784137 6371

Live tracking and technical data element details for STARLINK-1633 (NORAD 46171). STARLINK-1633 can be tracked NOW for your location showing map with azimuth and elevation plus other details from your city location.

Track the satellite on the map from your city or location and see movement details for azimuth, elevation, latitude, longitude, range, height, and movement on the map or in text.







IsCatalogInMostPopularTable: catalog: 46171, numindb: 3
Update: records affected: 1



GetName: 46171 STARLINK-1633

Hit Count: updated at: Thu, 24 Sep 2020 17:59:56 GMT